GW2622 Weather Reports


Display with metric or nautical units.
time (UTC)temp
F
wind
direction
speed
MPH
gust
MPH
rain 1hr
in
rain 24hr
in
rain mn
in
humidity
%
barometer
mb
20260505021002 60 10 9.0 18.0 0.00 0.00 0.00 41 1005.6
20260505020457 61 351 5.0 16.0 0.00 0.00 0.00 41 1005.7
20260505015954 61 305 7.0 21.0 0.00 0.00 0.00 41 1005.3
20260505015451 63 286 7.0 17.0 0.00 0.00 0.00 39 1005.2
20260505014948 63 15 8.0 22.0 0.00 0.00 0.00 37 1005.1
20260505014445 63 7 11.0 22.0 0.00 0.00 0.00 36 1004.8
20260505013942 64 359 11.0 24.0 0.00 0.00 0.00 36 1004.8
20260505013439 64 23 18.0 23.0 0.00 0.00 0.00 35 1004.4
20260505012937 65 1 13.0 24.0 0.00 0.00 0.00 35 1004.5
20260505012436 65 352 14.0 16.0 0.00 0.00 0.00 34 1004.2
20260505011932 66 336 10.0 14.0 0.00 0.00 0.00 35 1003.8
20260505011428 66 7 13.0 22.0 0.00 0.00 0.00 34 1003.9
20260505010925 66 6 8.0 22.0 0.00 0.00 0.00 34 1003.5
20260505010420 67 5 7.0 17.0 0.00 0.00 0.00 34 1003.6
20260505005916 67 9 13.0 18.0 0.00 0.00 0.00 33 1003.4
20260505005413 68 11 5.0 16.0 0.00 0.00 0.00 34 1003.4
20260505004910 68 335 12.0 24.0 0.00 0.00 0.00 33 1003.2
20260505004407 68 309 10.0 23.0 0.00 0.00 0.00 33 1003.2
20260505003904 69 334 11.0 25.0 0.00 0.00 0.00 33 1002.8
20260505003401 70 9 7.0 18.0 0.00 0.00 0.00 33 1002.7
20260505002857 71 6 17.0 25.0 0.00 0.00 0.00 32 1002.3
20260505002354 71 5 5.0 17.0 0.00 0.00 0.00 33 1002.3
20260505001852 72 12 13.0 21.0 0.00 0.00 0.00 32 1002.3
20260505001349 72 353 10.0 17.0 0.00 0.00 0.00 32 1002.0
20260505000846 73 337 12.0 17.0 0.00 0.00 0.00 30 1002.1
20260505000344 73 354 8.0 17.0 0.00 0.00 0.00 31 1002.1
20260504235840 73 3 10.0 14.0 0.00 0.00 0.00 32 1002.0
20260504235338 74 333 9.0 21.0 0.00 0.00 0.00 31 1001.9
20260504234834 74 344 12.0 22.0 0.00 0.00 0.00 31 1002.0
20260504234332 75 341 14.0 23.0 0.00 0.00 0.00 30 1001.8
20260504233828 75 46 8.0 16.0 0.00 0.00 0.00 30 1001.8
20260504233324 75 1 6.0 22.0 0.00 0.00 0.00 30 1001.7
20260504232821 75 341 12.0 18.0 0.00 0.00 0.00 30 1001.5
20260504232318 75 337 15.0 24.0 0.00 0.00 0.00 31 1001.7
20260504231815 76 316 4.0 18.0 0.00 0.00 0.00 31 1001.5
20260504231311 76 299 9.0 23.0 0.00 0.00 0.00 31 1001.4
20260504230808 76 44 12.0 21.0 0.00 0.00 0.00 31 1001.5
20260504230306 76 20 14.0 20.0 0.00 0.00 0.00 31 1001.4
20260504225804 77 349 11.0 18.0 0.00 0.00 0.00 31 1001.2
20260504225300 77 295 16.0 21.0 0.00 0.00 0.00 31 1001.0
20260504224757 78 330 9.0 20.0 0.00 0.00 0.00 32 1001.1
20260504224255 78 328 15.0 24.0 0.00 0.00 0.00 31 1000.9
20260504223751 78 50 8.0 16.0 0.00 0.00 0.00 33 1001.0
20260504223247 78 306 10.0 16.0 0.00 0.00 0.00 33 1000.5
20260504222744 79 333 7.0 16.0 0.00 0.00 0.00 34 1000.7
20260504222241 79 5 6.0 17.0 0.00 0.00 0.00 34 1000.5
20260504221738 80 314 8.0 17.0 0.00 0.00 0.00 34 1000.3
20260504221235 81 348 8.0 13.0 0.00 0.00 0.00 35 1000.1
20260504220731 81 358 8.0 13.0 0.00 0.00 0.00 32 1000.2
20260504220229 80 309 2.0 11.0 0.00 0.00 0.00 34 1000.0
20260504215726 79 337 5.0 13.0 0.00 0.00 0.00 34 1000.0
20260504215217 79 324 2.0 13.0 0.00 0.00 0.00 36 1000.2
20260504214712 80 340 8.0 10.0 0.00 0.00 0.00 33 1000.2
20260504214209 80 338 6.0 14.0 0.00 0.00 0.00 33 1000.0
20260504213706 81 315 7.0 16.0 0.00 0.00 0.00 34 1000.0
20260504213202 82 284 13.0 18.0 0.00 0.00 0.00 30 999.9
20260504212659 83 319 9.0 13.0 0.00 0.00 0.00 28 999.6
20260504212155 83 284 10.0 11.0 0.00 0.00 0.00 26 999.7
20260504211653 83 304 4.0 9.0 0.00 0.00 0.00 25 999.8
20260504211149 82 280 4.0 9.0 0.00 0.00 0.00 27 999.8
20260504210647 83 65 8.0 11.0 0.00 0.00 0.00 26 999.8
20260504210143 82 285 5.0 13.0 0.00 0.00 0.00 26 999.9
20260504205641 83 289 5.0 9.0 0.00 0.00 0.00 27 999.9
20260504205138 82 322 7.0 11.0 0.00 0.00 0.00 26 999.8
20260504204637 81 304 5.0 9.0 0.00 0.00 0.00 28 1000.0
20260504204135 82 298 9.0 14.0 0.00 0.00 0.00 27 999.9
20260504203633 83 295 6.0 14.0 0.00 0.00 0.00 28 999.9
20260504203131 82 321 5.0 10.0 0.00 0.00 0.00 28 1000.0
20260504202626 82 293 9.0 13.0 0.00 0.00 0.00 27 999.9
20260504202123 82 285 5.0 10.0 0.00 0.00 0.00 28 1000.0
20260504201620 82 301 7.0 11.0 0.00 0.00 0.00 30 1000.0
20260504201118 82 250 5.0 17.0 0.00 0.00 0.00 29 1000.1
20260504200615 82 312 9.0 16.0 0.00 0.00 0.00 30 999.9
20260504200111 83 284 7.0 15.0 0.00 0.00 0.00 30 1000.1
20260504195607 82 285 5.0 8.0 0.00 0.00 0.00 32 1000.0
20260504195103 81 293 8.0 15.0 0.00 0.00 0.00 31 1000.3
20260504194600 80 295 6.0 14.0 0.00 0.00 0.00 32 1000.1
20260504194055 81 306 8.0 17.0 0.00 0.00 0.00 32 1000.1
20260504193552 82 262 3.0 11.0 0.00 0.00 0.00 33 1000.3
20260504193051 82 232 11.0 15.0 0.00 0.00 0.00 30 1000.2
20260504192549 83 356 4.0 18.0 0.00 0.00 0.00 34 1000.3
20260504192047 81 251 3.0 8.0 0.00 0.00 0.00 33 1000.2
20260504191544 80 326 4.0 10.0 0.00 0.00 0.00 33 1000.1
20260504191040 81 278 6.0 13.0 0.00 0.00 0.00 33 1000.1
20260504190537 82 244 9.0 21.0 0.00 0.00 0.00 32 1000.2
20260504190032 82 346 6.0 15.0 0.00 0.00 0.00 32 1000.2
20260504185530 80 266 5.0 7.0 0.00 0.00 0.00 34 1000.1
20260504185026 82 278 7.0 16.0 0.00 0.00 0.00 33 1000.4
20260504184521 81 258 5.0 11.0 0.00 0.00 0.00 32 1000.4
20260504184017 82 286 6.0 11.0 0.00 0.00 0.00 32 1000.1
20260504183515 82 205 4.0 8.0 0.00 0.00 0.00 37 1000.3
20260504183013 81 279 3.0 11.0 0.00 0.00 0.00 34 1000.3
20260504182509 81 40 4.0 14.0 0.00 0.00 0.00 33 1000.2
20260504182006 81 300 9.0 16.0 0.00 0.00 0.00 33 1000.3
20260504181503 81 232 5.0 11.0 0.00 0.00 0.00 32 1000.2
20260504181002 80 275 4.0 10.0 0.00 0.00 0.00 33 1000.2
20260504180500 82 306 5.0 21.0 0.00 0.00 0.00 33 1000.3
20260504175958 82 287 8.0 13.0 0.00 0.00 0.00 33 1000.3
20260504175455 81 254 7.0 9.0 0.00 0.00 0.00 35 1000.2
20260504174953 81 309 5.0 16.0 0.00 0.00 0.00 35 1000.2
20260504174450 80 301 6.0 10.0 0.00 0.00 0.00 38 1000.2
20260504173947 80 222 5.0 7.0 0.00 0.00 0.00 37 1000.4
20260504173443 81 259 9.0 11.0 0.00 0.00 0.00 36 1000.5
20260504172941 81 266 4.0 14.0 0.00 0.00 0.00 39 1000.5
20260504172437 80 283 3.0 9.0 0.00 0.00 0.00 39 1000.3
20260504171934 79 261 5.0 9.0 0.00 0.00 0.00 39 1000.5
20260504171431 79 232 7.0 9.0 0.00 0.00 0.00 37 1000.5
20260504170928 79 242 6.0 8.0 0.00 0.00 0.00 43 1000.5
20260504170424 79 221 3.0 8.0 0.00 0.00 0.00 44 1000.7
20260504160343 75 206 5.0 7.0 0.00 0.00 0.00 49 1000.8
20260504150808 73 218 3.0 5.0 0.00 0.00 0.00 53 1000.9
20260504150304 72 259 5.0 7.0 0.00 0.00 0.00 52 1001.1
20260504141229 66 256 3.0 7.0 0.00 0.00 0.00 61 1001.4
20260504140725 66 209 3.0 7.0 0.00 0.00 0.00 61 1001.4
20260504140221 65 218 3.0 6.0 0.00 0.00 0.00 62 1001.6
20260504130650 57 222 6.0 7.0 0.00 0.00 0.00 68 1001.5
20260504130146 57 230 3.0 6.0 0.00 0.00 0.00 69 1001.6
20260504120110 51 218 2.0 3.0 0.00 0.00 0.00 73 1002.2
20260504110538 50 219 1.0 1.0 0.00 0.00 0.00 75 1002.2
20260504100459 50 219 0.0 0.0 0.00 0.00 0.00 74 1002.8
20260504081858 51 215 1.0 2.0 0.00 0.00 0.00 70 1004.3
20260504081354 51 215 1.0 1.0 0.00 0.00 0.00 70 1004.2
20260504080850 51 215 1.0 2.0 0.00 0.00 0.00 69 1004.4
20260504080348 51 215 1.0 1.0 0.00 0.00 0.00 69 1004.6
20260504070315 53 223 1.0 2.0 0.00 0.00 0.00 64 1005.3
20260504060236 55 222 3.0 3.0 0.00 0.00 0.00 60 1006.2
20260504050703 57 219 2.0 2.0 0.00 0.00 0.00 53 1006.8
20260504050200 57 219 2.0 2.0 0.00 0.00 0.00 53 1006.7
20260504045657 57 219 2.0 2.0 0.00 0.00 0.00 53 1006.7
20260504045152 58 219 2.0 2.0 0.00 0.00 0.00 53 1006.8
20260504044650 57 219 2.0 2.0 0.00 0.00 0.00 53 1006.7
20260504044147 57 219 2.0 2.0 0.00 0.00 0.00 54 1006.8
20260504043644 57 219 1.0 2.0 0.00 0.00 0.00 55 1006.8
20260504043141 56 219 1.0 2.0 0.00 0.00 0.00 56 1006.9
20260504042639 57 218 2.0 3.0 0.00 0.00 0.00 57 1006.8
20260504042135 56 217 2.0 2.0 0.00 0.00 0.00 57 1006.9
20260504041630 56 217 0.0 1.0 0.00 0.00 0.00 58 1006.9
20260504041127 57 215 1.0 2.0 0.00 0.00 0.00 56 1006.9
20260504040624 57 215 2.0 2.0 0.00 0.00 0.00 53 1006.9
20260504040121 59 219 2.0 3.0 0.00 0.00 0.00 51 1007.3
20260504035618 59 232 1.0 2.0 0.00 0.00 0.00 51 1007.2
20260504035114 58 232 2.0 2.0 0.00 0.00 0.00 51 1007.2
20260504034612 58 233 0.0 2.0 0.00 0.00 0.00 52 1007.3
20260504034109 59 232 1.0 2.0 0.00 0.00 0.00 51 1007.3
20260504033607 59 231 2.0 2.0 0.00 0.00 0.00 51 1007.5
20260504033104 59 232 3.0 3.0 0.00 0.00 0.00 51 1007.6
20260504032601 59 236 1.0 1.0 0.00 0.00 0.00 52 1007.7
20260504032058 59 236 1.0 1.0 0.00 0.00 0.00 52 1007.7
20260504031555 60 236 1.0 1.0 0.00 0.00 0.00 51 1007.9
20260504031050 60 235 2.0 2.0 0.00 0.00 0.00 49 1007.7
20260504030548 59 238 2.0 2.0 0.00 0.00 0.00 50 1008.0
20260504030044 60 239 1.0 1.0 0.00 0.00 0.00 51 1007.8
20260504025542 60 239 1.0 1.0 0.00 0.00 0.00 49 1007.7
20260504025038 61 239 1.0 2.0 0.00 0.00 0.00 47 1007.9
20260504024535 62 239 2.0 2.0 0.00 0.00 0.00 45 1007.7
20260504024032 63 240 2.0 2.0 0.00 0.00 0.00 44 1007.6
20260504023529 63 240 1.0 2.0 0.00 0.00 0.00 43 1007.8
20260504023025 63 240 1.0 2.0 0.00 0.00 0.00 43 1007.9
20260504022520 63 240 1.0 2.0 0.00 0.00 0.00 42 1007.7
20260504022017 63 241 1.0 1.0 0.00 0.00 0.00 42 1007.6
20260504021515 63 241 1.0 1.0 0.00 0.00 0.00 43 1007.6